Carolina, PR

10:22 PM AST on January 23, 2017 (GMT -0400)
Luis Munoz Marin International

Weather History for TJSJ - February, 2013

Change the Weather History Date:

Tuesday, February 5, 2013

  Actual Average Record
Temperature  
Mean Temperature 77 °F 78 °F  
Max Temperature 83 °F 83 °F 91 °F (1995)
Min Temperature 70 °F 72 °F 62 °F (1968)
Degree Days  
Heating Degree Days 0 0  
Month to date heating degree days 0 0  
Since 1 July heating degree days 0 0  
Cooling Degree Days 12 13  
Month to date cooling degree days 62 65  
Year to date cooling degree days 483 456  
Growing Degree Days 26 (Base 50)    
Moisture  
Dew Point 65 °F    
Average Humidity 65    
Maximum Humidity 78    
Minimum Humidity 51    
Precipitation  
Precipitation 0.11 in 0.09 in 0.80 in (1998)
Month to date precipitation 0.87 0.46  
Year to date precipitation 2.65 4.22  
Sea Level Pressure  
Sea Level Pressure 30.02 in    
Wind  
Wind Speed 6 mph (ENE)    
Max Wind Speed 21 mph    
Max Gust Speed 25 mph    
Visibility 10 miles    
Events Rain    
T = Trace of Precipitation, MM = Missing Value Source: NWS Daily Summary

Daily Weather History Graph

Daily Weather History Graph

Search for Another Location

Airport or City:

Trip Planner

Search our weather history database for the weather conditions in past years. The results will help you decide how hot, cold, wet, or windy it might be!

Date:

Astronomy

Feb. 05, 2013 Rise Set
Actual Time 6:56 AM AST 6:20 PM AST
Civil Twilight 6:33 AM AST 6:42 PM AST
Nautical Twilight 6:07 AM AST 7:08 PM AST
Astronomical Twilight 5:41 AM AST 7:34 PM AST
Moon 2:19 AM AST (2/5) 1:48 PM AST (2/5)
Length of Visible Light 12h 09m
Length of Day
11h 24m
Waning Crescent, 27% of the Moon is Illuminated
Feb 5
Waning Crescent
Feb 10
New
Feb 17
First Quarter
Feb 25
Full
Mar 4
Last Quarter

Hourly Weather History & Observations

Time (AST) Temp. Heat Index Dew Point Humidity Pressure Visibility Wind Dir Wind Speed Gust Speed Precip Events Conditions
12:56 AM 72.0 °F - 63.0 °F 73% 30.01 in 10.0 mi Calm Calm - N/A   Partly Cloudy
1:56 AM 71.1 °F - 63.0 °F 75% 30.00 in 10.0 mi Calm Calm - N/A   Scattered Clouds
2:56 AM 71.1 °F - 63.0 °F 75% 29.99 in 10.0 mi Calm Calm - N/A   Scattered Clouds
3:56 AM 70.0 °F - 63.0 °F 78% 29.98 in 10.0 mi Calm Calm - N/A   Scattered Clouds
4:56 AM 71.1 °F - 62.1 °F 73% 29.98 in 10.0 mi Calm Calm - N/A   Scattered Clouds
5:56 AM 72.0 °F - 62.1 °F 71% 29.99 in 10.0 mi Calm Calm - N/A   Scattered Clouds
6:56 AM 72.0 °F - 61.0 °F 68% 30.01 in 10.0 mi Calm Calm - N/A   Scattered Clouds
7:56 AM 73.9 °F - 61.0 °F 64% 30.04 in 10.0 mi Calm Calm - N/A   Scattered Clouds
8:56 AM 79.0 °F - 60.1 °F 52% 30.07 in 10.0 mi SE 4.6 mph - N/A   Scattered Clouds
9:56 AM 80.1 °F 81.5 °F 63.0 °F 56% 30.08 in 10.0 mi East 5.8 mph - N/A   Scattered Clouds
10:56 AM 80.1 °F 81.1 °F 61.0 °F 52% 30.08 in 10.0 mi ENE 17.3 mph 21.9 mph N/A   Scattered Clouds
11:56 AM 80.1 °F 81.7 °F 64.0 °F 58% 30.06 in 10.0 mi ENE 13.8 mph 19.6 mph N/A   Mostly Cloudy
12:56 PM 81.0 °F 82.5 °F 64.0 °F 56% 30.04 in 10.0 mi ENE 16.1 mph 23.0 mph N/A   Mostly Cloudy
1:56 PM 82.0 °F 83.8 °F 64.9 °F 56% 30.01 in 10.0 mi NE 13.8 mph - N/A   Scattered Clouds
2:56 PM 78.1 °F - 66.0 °F 66% 30.00 in 10.0 mi ENE 12.7 mph - 0.00 in   Scattered Clouds
3:56 PM 78.1 °F - 66.9 °F 68% 29.99 in 10.0 mi NE 11.5 mph - N/A   Mostly Cloudy
4:56 PM 78.1 °F - 66.0 °F 66% 30.00 in 10.0 mi NE 10.4 mph - N/A   Mostly Cloudy
5:56 PM 77.0 °F - 66.9 °F 71% 30.01 in 10.0 mi ENE 9.2 mph - N/A   Mostly Cloudy
6:56 PM 75.9 °F - 66.9 °F 74% 30.01 in 10.0 mi ENE 6.9 mph - N/A   Scattered Clouds
7:56 PM 77.0 °F - 68.0 °F 74% 30.02 in 10.0 mi ENE 8.1 mph - N/A   Scattered Clouds
8:56 PM 73.0 °F - 69.1 °F 87% 30.03 in 10.0 mi East 8.1 mph - 0.08 in Rain Light Rain
9:56 PM 73.0 °F - 69.1 °F 87% 30.04 in 10.0 mi SE 3.5 mph - 0.00 in   Scattered Clouds
10:56 PM 73.0 °F - 69.1 °F 87% 30.04 in 8.0 mi Calm Calm - 0.00 in Rain Light Rain
11:56 PM 73.0 °F - 70.0 °F 90% 30.02 in 4.0 mi Variable 4.6 mph - 0.03 in Rain Light Rain